Date;Poids;Temperature;Hygrometrie
2024-04-19 14:18:19;50.4;18;57
2024-04-19 12:21:28;51.1;15;60
2024-04-19 10:41:32;51.4;11;61
2024-04-19 09:34:50;51.5;8;64
2024-04-19 08:11:33;51.6;5;68
2024-04-19 06:15:06;51.4;5;70
2024-04-19 04:18:45;51.6;5;69
2024-04-19 02:22:22;51.5;6;70
2024-04-19 00:25:57;51.6;7;69
2024-04-18 22:29:30;51.5;8;69
2024-04-18 20:33:01;51.6;9;69
2024-04-18 19:37:57;52;10;66
2024-04-18 17:41:22;51.9;11;66
2024-04-18 15:44:45;52;11;66
2024-04-18 14:20:21;51.9;9;67
2024-04-18 12:23:54;52.1;7;68
2024-04-18 11:41:27;51.7;6;73
2024-04-18 11:17:37;51.9;8;69
2024-04-18 09:21:10;52.1;6;68
2024-04-18 07:24:47;51.9;5;70
2024-04-18 05:28:26;52.1;5;69
2024-04-18 03:32:04;52;6;69
2024-04-18 01:35:40;51.8;7;68
2024-04-17 23:39:16;52;7;68
2024-04-17 21:42:49;51.7;9;66
2024-04-17 19:46:18;51.4;11;65
2024-04-17 18:47:01;51.8;12;64
2024-04-17 17:47:13;52;14;61
2024-04-17 15:50:27;52;13;60
2024-04-17 15:04:40;51.9;11;65
2024-04-17 13:24:20;52.1;13;61
2024-04-17 11:46:48;52.1;10;64
2024-04-17 09:50:14;52;10;62
2024-04-17 07:53:46;52.2;7;65
2024-04-17 05:57:21;52.1;7;65
2024-04-17 04:00:56;52.1;7;64
2024-04-17 02:04:29;52;7;63
2024-04-17 00:08:03;51.9;8;63
2024-04-16 22:11:34;51.7;10;60
2024-04-16 20:15:00;51.7;12;60
2024-04-16 19:29:39;51.9;14;58
2024-04-16 18:13:54;52;16;53
2024-04-16 16:33:28;51.9;14;58
2024-04-16 14:36:43;51.8;14;58
2024-04-16 12:40:01;52;12;59
2024-04-16 10:43:24;52.3;10;60
2024-04-16 08:46:53;52;9;62
2024-04-16 06:50:26;52.2;7;65
2024-04-16 04:53:58;52.1;9;64
2024-04-16 03:44:54;52.1;12;59
2024-04-16 01:48:15;52.1;13;58
2024-04-15 23:51:32;51.9;14;59
2024-04-15 21:54:45;51.9;16;58
2024-04-15 19:57:52;52;18;57
2024-04-15 18:32:12;51.9;21;56
2024-04-15 17:49:26;52;23;54
2024-04-15 15:52:11;51.5;24;54
2024-04-15 13:54:54;51.2;25;53
2024-04-15 11:57:38;51.4;23;55
2024-04-15 10:00:30;51.7;21;58
2024-04-15 08:03:28;52.3;18;60
2024-04-15 06:06:31;52.2;19;59
2024-04-15 04:09:32;52.4;19;58
2024-04-15 02:12:31;52.5;20;57
2024-04-15 00:15:26;52.6;20;57
2024-04-14 22:18:20;52.6;22;57
2024-04-14 20:38:26;52.5;25;55
2024-04-14 20:00:20;52.6;27;53
2024-04-14 19:10:24;52.3;31;48
2024-04-14 17:12:42;51.3;33;44
2024-04-14 15:55:54;51;32;46
2024-04-14 14:19:25;50.6;31;46
2024-04-14 12:54:43;50.4;29;47
2024-04-14 12:11:52;50.1;28;47
2024-04-14 11:19:10;49.9;26;48
2024-04-14 10:42:28;49.6;25;48
2024-04-14 09:56:53;49.4;23;49
2024-04-14 08:18:59;49.9;18;52
2024-04-14 06:22:05;50.1;18;53
2024-04-14 04:25:07;50.4;18;52
2024-04-14 02:28:08;50.4;19;52
2024-04-14 00:31:07;50.4;20;52
2024-04-13 22:34:03;50.5;21;53
2024-04-13 20:58:25;50.4;24;53
2024-04-13 20:25:57;50.6;26;51
2024-04-13 18:47:10;50;31;44
2024-04-13 17:43:07;49.4;31;45
2024-04-13 16:33:25;49.1;30;46
2024-04-13 15:12:29;48.7;29;46
2024-04-13 14:24:27;48.3;28;47
2024-04-13 13:22:50;48;27;47
2024-04-13 12:32:01;47.6;26;47
2024-04-13 11:59:32;47.5;24;48
2024-04-13 11:20:03;47.1;23;48
2024-04-13 10:35:54;47;21;48
2024-04-13 09:09:19;47.7;15;53
2024-04-13 07:12:33;47.7;14;55
2024-04-13 05:15:49;47.9;14;56
2024-04-13 03:19:04;47.8;15;57
2024-04-13 01:22:15;48.1;15;57
2024-04-12 23:25:25;48.1;16;58
2024-04-12 21:28:32;48.1;18;58
2024-04-12 20:39:19;48;21;56
2024-04-12 20:15:47;48.2;23;54
2024-04-12 19:57:51;48.4;25;51
2024-04-12 18:00:25;47.7;27;48
2024-04-12 17:16:10;47.4;26;49
2024-04-12 16:00:59;46.7;26;48
2024-04-12 15:16:26;46.4;25;49
2024-04-12 14:06:19;46;24;50
2024-04-12 13:26:50;45.7;23;51
2024-04-12 12:20:13;45.3;22;51
2024-04-12 11:22:32;45.2;20;51
2024-04-12 10:32:52;45;18;51
2024-04-12 08:36:09;46.1;11;58
2024-04-12 06:39:36;46.1;10;60
2024-04-12 04:43:02;46;11;58
2024-04-12 02:46:26;46.1;11;57
2024-04-12 00:49:51;46.1;11;58
2024-04-11 22:53:14;46.1;12;58
2024-04-11 20:56:34;46;14;59
2024-04-11 20:16:47;46.2;16;57
2024-04-11 19:39:17;46.1;19;54
2024-04-11 17:42:13;46;21;53
2024-04-11 17:41:10;35.7;21;53
2024-04-11 17:40:35;38.3;20;53
2024-04-11 16:50:51;46.3;22;51
2024-04-11 15:51:16;45.7;22;50
2024-04-11 14:17:32;45.3;21;51
2024-04-11 12:20:33;45.8;18;52
2024-04-11 10:23:42;46.4;14;54
2024-04-11 09:37:26;46.5;11;57
2024-04-11 08:19:35;46.6;8;60
2024-04-11 06:23:08;46.6;7;61
2024-04-11 04:26:42;46.5;8;61
2024-04-11 02:30:15;46.5;8;61
2024-04-11 00:33:46;46.4;9;62
2024-04-10 22:37:15;46.5;11;59
2024-04-10 20:40:40;46.4;12;60
2024-04-10 18:44:00;46.4;14;59
2024-04-10 16:56:02;46.8;15;57
2024-04-10 14:59:14;46.7;15;57
2024-04-10 13:02:29;47;14;55
2024-04-10 12:22:15;46.8;12;59
2024-04-10 10:51:18;46.9;9;61
2024-04-10 08:54:49;46.9;8;62
2024-04-10 06:58:24;46.9;7;62
2024-04-10 05:01:58;46.8;7;61
2024-04-10 03:05:34;46.9;7;61
2024-04-10 01:09:07;46.9;8;61
2024-04-09 23:12:39;47;8;60
2024-04-09 21:16:11;47.1;8;61
2024-04-09 19:19:41;46.9;11;61
2024-04-09 17:35:06;46.8;14;57
2024-04-09 16:00:39;46.9;16;53
2024-04-09 15:57:43;36.6;16;53
2024-04-09 15:57:08;36.2;16;53
2024-04-09 15:56:33;30.7;16;53
2024-04-09 15:55:57;32.5;16;53
2024-04-09 15:55:22;29.7;16;53
2024-04-09 15:54:47;31.1;16;53
2024-04-09 15:54:12;32.8;16;53
2024-04-09 15:53:37;33.5;16;53
2024-04-09 15:14:16;44.4;16;52
2024-04-09 14:51:17;44.3;14;55
2024-04-09 14:32:30;44.4;16;52
2024-04-09 12:45:33;44.5;13;53
2024-04-09 11:12:43;44.6;10;55
2024-04-09 09:16:12;44.8;9;56
2024-04-09 07:19:45;44.6;9;55
2024-04-09 05:23:15;44.5;10;54
2024-04-09 03:26:44;44.2;11;54
2024-04-09 02:46:32;44;14;51
2024-04-09 01:36:52;44;17;45
2024-04-09 00:45:21;44.1;19;42
2024-04-08 22:48:19;44;21;41
2024-04-08 21:01:28;44.2;22;41
2024-04-08 19:04:15;44.2;23;41
2024-04-08 17:06:57;43.5;25;40
2024-04-08 15:09:36;43.2;27;39
2024-04-08 13:34:43;43;25;40
2024-04-08 12:35:03;42.7;24;40
2024-04-08 11:54:39;42.3;23;41
2024-04-08 10:56:28;42.2;21;42
2024-04-08 08:59:22;41.8;21;42
2024-04-08 07:02:19;42.7;18;44
2024-04-08 05:05:25;42.5;19;44
2024-04-08 03:08:25;42.5;20;43
2024-04-08 01:11:24;42.7;20;44
2024-04-07 23:14:22;42.8;20;44
2024-04-07 21:17:18;42.8;21;43
2024-04-07 19:20:10;43;22;43
2024-04-07 17:22:55;42;24;42
2024-04-07 15:25:39;42.3;24;44
2024-04-07 13:28:20;41.6;26;42
2024-04-07 12:33:50;41.5;24;43
2024-04-07 11:34:13;41.1;23;44
2024-04-07 10:49:37;41;21;45
2024-04-07 09:48:12;40.6;20;46
2024-04-07 07:51:12;40.9;19;47
2024-04-07 05:54:11;40.8;21;45
2024-04-07 03:57:05;40.6;21;44
2024-04-07 03:11:34;40.6;21;44
2024-04-07 02:39:38;40.6;21;44
2024-04-07 02:37:39;41.1;21;44
2024-04-07 02:30:30;40.8;21;44
2024-04-07 01:17:51;41;21;44
2024-04-06 23:20:43;41.1;21;45
2024-04-06 22:41:17;41.1;21;46
2024-04-06 22:13:05;41.3;21;46
2024-04-06 20:15:56;41.1;22;46
2024-04-06 19:39:45;41.1;23;46
2024-04-06 18:51:22;41.3;24;45
2024-04-06 17:08:04;40.2;26;43
2024-04-06 15:10:41;40.2;25;44
2024-04-06 13:13:16;39.6;26;43
2024-04-06 11:52:54;39;26;42
2024-04-06 11:15:16;38.9;24;43
2024-04-06 10:34:22;38.5;23;43
2024-04-06 09:09:34;39.1;18;47
2024-04-06 07:12:38;39;17;49
2024-04-06 05:51:13;38.9;17;49
2024-04-06 05:50:37;38.1;17;49
2024-04-06 05:24:21;39.1;17;50
2024-04-06 05:13:57;39.2;17;50
2024-04-06 04:53:45;39.2;17;50
2024-04-06 04:32:36;39.2;17;50
2024-04-06 03:51:21;39.2;18;50
2024-04-06 01:54:25;39.1;18;53
2024-04-06 00:44:12;39.4;18;54
2024-04-05 22:47:14;39.5;18;56
2024-04-05 20:50:15;39.7;19;57
2024-04-05 18:53:09;39.6;21;56
2024-04-05 16:55:56;39;23;54
2024-04-05 14:58:35;38.5;23;54
2024-04-05 13:29:28;38.4;21;55
2024-04-05 12:20:59;37.8;21;54
2024-04-05 10:28:37;38.1;17;58
2024-04-05 08:31:42;38.3;17;59
2024-04-05 06:34:49;38.4;16;59
2024-04-05 04:37:55;38.4;16;60
2024-04-05 02:41:04;38.5;17;59
2024-04-05 00:44:08;38.5;17;60
2024-04-04 22:47:12;38.6;17;60
2024-04-04 20:50:14;38.6;19;60
2024-04-04 19:12:44;38.3;23;56
2024-04-04 17:17:46;37.7;23;57
2024-04-04 15:20:27;37.3;24;54
2024-04-04 14:18:28;37.2;22;56
2024-04-04 13:16:07;37.4;19;59
2024-04-04 11:19:12;37.5;17;61
2024-04-04 09:22:13;37.8;15;63
2024-04-04 07:25:27;38.1;12;66
2024-04-04 05:28:45;37.9;12;67
2024-04-04 03:32:05;38.1;12;67
2024-04-04 01:35:21;38.3;13;66
2024-04-03 23:38:36;38.2;14;66
2024-04-03 21:41:50;38.3;14;65
2024-04-03 19:45:02;38.1;16;65
2024-04-03 17:48:06;38.2;18;62
2024-04-03 15:51:02;38.1;18;61
2024-04-03 13:54:00;37.9;17;60
2024-04-03 11:57:07;38.1;15;62
2024-04-03 10:00:21;38.3;13;62
2024-04-03 08:06:30;38.2;11;64
2024-04-03 06:09:55;38.3;10;65
2024-04-03 04:13:18;38;11;63
2024-04-03 02:16:37;38.1;13;60
2024-04-03 00:19:51;38.1;14;62
2024-04-02 22:23:03;38.2;15;62
2024-04-02 20:26:12;38.3;16;63
2024-04-02 19:25:47;38.2;19;59
2024-04-02 17:28:42;37.9;19;58
2024-04-02 17:28:07;28.4;19;58
2024-04-02 17:27:31;26.9;19;58
2024-04-02 15:32:52;37.5;17;62
2024-04-02 13:35:54;37.5;16;62
2024-04-02 11:39:02;37.7;15;62
2024-04-02 10:30:48;37.8;12;65
2024-04-02 09:10:32;38.1;8;69
2024-04-02 07:14:03;38;7;72
2024-04-02 05:17:33;37.9;8;71
2024-04-02 03:21:03;38;8;71
2024-04-02 01:24:33;38.1;8;71
2024-04-01 23:28:01;38;9;71
2024-04-01 21:31:30;38.2;8;72
2024-04-01 19:34:57;37.7;10;74
2024-04-01 18:11:51;37.4;14;67
2024-04-01 16:37:52;38.1;14;65
2024-04-01 14:41:08;37.7;14;67
2024-04-01 12:44:20;37.9;13;67
2024-04-01 10:47:37;38;11;67
2024-04-01 09:09:13;38.1;8;71
2024-04-01 07:12:42;38;8;72
2024-04-01 05:16:11;38;8;71
2024-04-01 03:19:40;38.1;8;72
2024-04-01 01:23:08;38;9;73
2024-03-31 23:26:32;38;11;69
2024-03-31 21:29:56;37.8;11;70
2024-03-31 19:33:18;37.7;12;69
2024-03-31 18:27:52;37.5;15;65
2024-03-31 16:30:59;37.7;16;64
2024-03-31 15:35:44;37.8;16;64
2024-03-31 13:38:50;38;16;63
2024-03-31 12:09:31;38.2;13;65
2024-03-31 10:17:33;38.3;10;67
2024-03-31 08:20:59;38.2;10;67
2024-03-31 06:24:24;38;10;66
2024-03-31 04:27:46;37.8;12;63
2024-03-31 02:31:07;37.8;12;62
2024-03-31 00:34:27;37.8;12;62
2024-03-30 22:37:47;38;12;63
2024-03-30 20:41:02;38;14;63
2024-03-30 18:44:13;38.1;15;64
2024-03-30 17:07:22;38;18;58
2024-03-30 15:10:26;37.7;18;56
2024-03-30 14:42:17;37.8;15;59
2024-03-30 13:08:54;37.7;13;63
2024-03-30 11:12:10;37.7;13;63
2024-03-30 09:15:24;37.7;14;59
2024-03-30 07:18:38;37.6;14;60
2024-03-30 05:21:50;37.4;15;58
2024-03-30 03:49:43;37.6;16;57
2024-03-30 02:09:40;37.6;16;59
2024-03-30 00:12:48;37.8;16;59
2024-03-29 22:15:53;37.9;16;60
2024-03-29 20:18:58;37.6;17;61
2024-03-29 19:41:27;37.6;18;60
2024-03-29 17:44:28;37.9;18;60
2024-03-29 16:33:15;37.8;19;59
2024-03-29 14:36:09;37.7;19;58
2024-03-29 12:39:07;37.8;19;59
2024-03-29 10:42:06;38;18;59
2024-03-29 08:45:08;37.9;17;61
2024-03-29 06:48:14;38;16;60
2024-03-29 06:20:32;38.1;16;60
2024-03-29 04:23:51;38;15;60
2024-03-29 03:41:33;37.8;14;60
2024-03-29 03:08:46;37.6;14;60
2024-03-29 01:56:48;38;14;59
2024-03-29 00:00:02;38.2;13;58
2024-03-28 22:03:19;38.1;13;59
2024-03-28 20:06:35;38.3;14;58
2024-03-28 18:09:45;38.1;16;57
2024-03-28 16:12:48;38;17;57
2024-03-28 14:15:57;38.4;15;59
2024-03-28 12:19:11;38.4;13;61
2024-03-28 10:22:31;38.8;10;64
2024-03-28 09:18:36;38.8;7;69
2024-03-28 07:22:07;39;7;70
2024-03-28 05:25:37;38.7;9;71
2024-03-28 04:23:32;38.6;11;65
2024-03-28 02:26:55;38.6;10;65
2024-03-28 00:30:23;38.7;8;69
2024-03-27 22:33:51;38.7;9;69
2024-03-27 20:37:16;38.7;11;67
2024-03-27 18:40:36;38.5;14;65
2024-03-27 17:02:55;38.9;15;63
2024-03-27 17:02:21;28.2;15;63
2024-03-27 17:01:17;28.1;15;63
2024-03-27 16:22:26;38.3;14;65
2024-03-27 14:25:40;38.3;14;65
2024-03-27 12:28:58;38.8;11;67
2024-03-27 11:16:38;38.7;9;68
2024-03-27 10:25:46;38.5;7;70
2024-03-27 08:29:21;38.5;5;73
2024-03-27 06:32:58;38.6;5;72
2024-03-27 04:36:36;38.5;5;73
2024-03-27 02:40:12;38.6;6;73
2024-03-27 00:43:45;38.5;8;71
2024-03-26 22:47:12;38.5;9;69
2024-03-26 20:50:39;38.4;10;68
2024-03-26 18:54:03;38.2;10;69
2024-03-26 16:57:28;38.1;12;67
2024-03-26 15:22:38;37.9;15;62
2024-03-26 13:25:50;38.1;14;62
2024-03-26 11:29:07;38;13;63
2024-03-26 09:32:25;38.1;12;61
2024-03-26 07:35:46;38.1;11;62
2024-03-26 05:39:09;38.1;11;61
2024-03-26 03:42:31;38.1;11;61
2024-03-26 01:45:54;38.1;11;61
2024-03-25 23:49:16;38;12;59
2024-03-25 21:52:37;38.2;12;59
2024-03-25 19:55:55;38.1;13;58
2024-03-25 17:59:10;37.9;16;55
2024-03-25 16:02:19;38.1;15;57
2024-03-25 14:05:32;38.2;14;57
2024-03-25 12:08:49;38.1;12;57
2024-03-25 10:12:15;38.3;9;57
2024-03-25 09:39:33;38.4;6;61
2024-03-25 08:06:54;38.3;4;65
2024-03-25 06:10:35;38.3;4;65
2024-03-25 04:14:14;38.4;4;64
2024-03-25 02:17:52;38.3;5;64
2024-03-25 00:21:29;38.4;5;63
2024-03-24 22:25:04;38.2;7;63
2024-03-24 20:52:48;38.4;9;63
2024-03-24 20:00:59;38.3;12;60
2024-03-24 19:07:42;38.4;14;57
2024-03-24 17:10:56;38.4;14;57
2024-03-24 15:14:12;38.5;13;56
2024-03-24 14:33:30;38.2;12;58
2024-03-24 13:24:25;38.3;9;61
2024-03-24 11:27:52;38.3;9;61
2024-03-24 09:31:22;38.3;7;63
2024-03-24 07:34:55;38.2;7;63
2024-03-24 05:38:28;38.2;7;61
2024-03-24 03:41:58;38.1;8;60
2024-03-24 01:45:26;38.2;9;58
2024-03-23 23:48:54;38.3;9;58
2024-03-23 21:52:20;38.3;9;59
2024-03-23 19:55:46;38.2;11;60
2024-03-23 18:54:06;38.3;13;58
2024-03-23 18:06:50;38.2;16;55
2024-03-23 16:09:56;38.1;16;55
2024-03-23 14:13:04;38;15;56
2024-03-23 12:16:15;38.3;13;60
2024-03-23 10:19:35;38.3;11;64
2024-03-23 08:22:58;38.3;12;66
2024-03-23 06:47:42;38.4;14;63
2024-03-23 04:50:52;38.5;15;59
2024-03-23 02:54:04;38.4;15;60
2024-03-23 00:57:15;38.3;16;59
2024-03-22 23:00:23;38.5;16;59
2024-03-22 21:03:27;38.3;18;61
2024-03-22 20:14:14;38.4;20;59
2024-03-22 19:47:54;38.4;23;56
2024-03-22 18:32:43;38.3;26;52
2024-03-22 16:35:15;37.8;26;53
2024-03-22 14:37:51;37.6;24;56
2024-03-22 12:40:30;37.4;23;58
2024-03-22 11:06:43;37.5;20;59
2024-03-22 09:40:36;38.1;15;64
2024-03-22 07:43:48;37.9;14;67
2024-03-22 05:47:01;38;14;66
2024-03-22 03:50:15;38.1;13;67
2024-03-22 01:53:29;38;14;67
2024-03-21 23:56:40;38;15;66
2024-03-21 21:59:48;38;16;66
2024-03-21 20:02:52;37.9;19;65
2024-03-21 19:14:04;38;21;62
2024-03-21 17:16:47;37.7;24;58
2024-03-21 15:19:23;37.2;26;56
2024-03-21 13:36:32;37.1;24;57
2024-03-21 11:39:15;37.2;21;57
2024-03-21 10:50:27;37.1;19;58
2024-03-21 09:53:17;37.2;16;62
2024-03-21 07:56:29;37.4;14;65
2024-03-21 05:59:43;37.4;14;65
2024-03-21 04:02:55;37.5;14;64
2024-03-21 02:06:07;37.4;15;64
2024-03-21 00:09:15;37.3;17;62
2024-03-20 22:12:18;37.3;18;63
2024-03-20 20:15:18;37.3;19;63
2024-03-20 18:31:14;37;23;60
2024-03-20 16:33:53;36.7;25;57
2024-03-20 16:32:49;30;25;57
2024-03-20 16:32:13;26.4;25;57
2024-03-20 16:31:10;22.1;25;57
2024-03-20 16:29:10;20.2;26;57
2024-03-20 16:28:07;19.2;26;57
2024-03-20 16:27:31;19.4;26;57
2024-03-20 16:26:56;21.2;26;57
2024-03-20 16:26:21;17.8;26;57
2024-03-20 16:25:45;20.2;26;57
2024-03-20 16:25:10;23.6;26;57
2024-03-20 16:24:35;28.1;25;57
2024-03-20 16:23:59;32.7;25;57
2024-03-20 14:29:24;35.5;23;60
2024-03-20 12:32:06;35.5;21;60
2024-03-20 11:26:28;35.6;18;62
2024-03-20 10:39:37;35.4;16;64
2024-03-20 09:08:59;36;11;70
2024-03-20 07:12:22;36;10;72
2024-03-20 05:15:45;35.9;11;71
2024-03-20 03:19:07;36;11;71
2024-03-20 01:22:26;35.9;12;70
2024-03-19 23:25:45;36;12;71
2024-03-19 21:29:00;35.9;14;72
2024-03-19 20:22:07;35.8;17;70
2024-03-19 19:49:45;35.9;19;68
2024-03-19 18:49:41;35.8;22;63
2024-03-19 16:52:25;35.5;23;62
2024-03-19 14:58:27;35.3;21;65
2024-03-19 13:01:16;35.4;20;66
2024-03-19 11:46:49;35.4;17;68
2024-03-19 10:08:10;35.8;13;70
2024-03-19 08:39:30;35.9;10;75
2024-03-19 06:42:54;35.9;10;76
2024-03-19 04:46:16;35.9;11;75
2024-03-19 02:49:36;35.9;12;74
2024-03-19 00:52:56;35.9;11;75
2024-03-18 22:56:16;35.9;12;76
2024-03-18 20:59:31;35.8;14;75
2024-03-18 19:41:25;36;16;73
2024-03-18 17:44:25;35.7;19;69
2024-03-18 15:47:22;35.8;18;70
2024-03-18 13:50:18;35.8;18;69
2024-03-18 11:53:20;35.8;17;72
2024-03-18 09:56:26;35.8;16;71
2024-03-18 07:59:35;36;15;71
2024-03-18 06:02:44;35.9;15;71
2024-03-18 04:05:53;35.9;15;70
2024-03-18 02:09:07;36;13;74
2024-03-18 00:12:20;36;14;72
2024-03-17 22:15:32;36.1;14;72
2024-03-17 20:18:43;36;15;71
2024-03-17 18:21:50;35.9;17;69
2024-03-17 16:24:51;35.5;18;66
2024-03-17 14:27:54;35.6;17;66
2024-03-17 12:31:00;35.5;16;66
2024-03-17 10:34:11;35.9;13;67
2024-03-17 08:37:30;35.8;11;70
2024-03-17 06:40:54;35.9;10;71
2024-03-17 04:44:15;35.8;11;69
2024-03-17 02:47:39;35.8;10;71
2024-03-17 00:51:02;35.7;11;70
2024-03-16 22:54:25;35.8;11;71
2024-03-16 21:16:50;35.8;14;69
2024-03-16 19:20:00;35.6;16;66
2024-03-16 17:23:04;35.8;18;64
2024-03-16 15:26:05;35.8;18;64
2024-03-16 13:29:04;35.6;18;62
2024-03-16 11:36:22;35.7;15;67
2024-03-16 09:39:36;35.9;12;69
2024-03-16 07:42:56;35.9;12;68
2024-03-16 05:46:14;35.7;13;67
2024-03-16 03:49:31;35.9;12;68
2024-03-16 01:52:51;35.8;12;68
2024-03-15 23:56:08;35.7;13;68
2024-03-15 21:59:24;35.7;14;68
2024-03-15 20:02:35;35.8;16;67
2024-03-15 18:05:38;35.5;19;64
2024-03-15 16:53:26;35.6;21;59
2024-03-15 14:56:21;35.4;20;62
2024-03-15 12:59:16;35.3;19;60
2024-03-15 12:18:57;35.4;16;64
2024-03-15 10:22:08;35.7;14;66
2024-03-15 08:25:22;35.8;13;66
2024-03-15 06:28:39;35.6;13;67
2024-03-15 04:31:56;35.7;13;67
2024-03-15 02:35:10;35.5;15;66
2024-03-15 00:38:19;35.6;16;64
2024-03-14 22:41:27;35.7;16;65
2024-03-14 20:44:30;35.5;18;65
2024-03-14 19:20:09;35.4;21;62
2024-03-14 17:22:53;35.3;23;61
2024-03-14 15:25:31;35.1;24;61
2024-03-14 13:28:13;35.5;21;64
2024-03-14 12:08:04;35.6;18;65
2024-03-14 11:17:28;35.9;14;67
2024-03-14 10:12:03;36;11;70
2024-03-14 09:01:35;36.1;8;76
2024-03-14 07:05:03;36.1;8;76
2024-03-14 05:08:29;36;9;75
2024-03-14 03:11:55;36;9;75
2024-03-14 01:15:19;35.9;10;74
2024-03-13 23:18:41;36;10;75
2024-03-13 21:22:01;35.9;12;75
2024-03-13 20:17:02;35.8;15;73
2024-03-13 19:40:57;35.9;17;71
2024-03-13 19:11:22;36.1;19;67
2024-03-13 17:14:16;35.6;20;66
2024-03-13 17:13:41;24.8;20;66
2024-03-13 17:12:37;24.5;20;66
2024-03-13 16:16:49;34.8;19;68
2024-03-13 14:19:46;34.9;18;68
2024-03-13 12:22:48;35.3;15;71
2024-03-13 10:33:03;35.6;11;74
2024-03-13 08:36:25;35.6;9;76
2024-03-13 06:39:50;35.6;9;76
2024-03-13 04:43:16;35.4;10;75
2024-03-13 02:46:41;35.6;9;75
2024-03-13 00:50:07;35.4;9;77
2024-03-12 22:53:33;35.4;10;76
2024-03-12 20:56:56;35.4;11;76
2024-03-12 19:00:16;35.6;12;74
2024-03-12 17:03:31;35.6;13;73
2024-03-12 15:06:45;35.7;14;70
2024-03-12 14:15:19;35.8;11;75
2024-03-12 12:18:42;35.8;9;76
2024-03-12 10:22:08;35.8;9;75
2024-03-12 08:35:53;35.9;6;78
2024-03-12 06:39:25;35.7;7;77
2024-03-12 04:42:57;35.7;7;77
2024-03-12 02:46:28;35.8;7;76
2024-03-12 00:49:58;35.7;7;77
2024-03-11 22:53:29;35.8;7;77
2024-03-11 20:56:58;35.7;8;77
2024-03-11 19:00:26;35.8;9;76
2024-03-11 17:03:51;35.7;10;75
2024-03-11 15:07:13;35.8;10;72
2024-03-11 13:10:37;35.8;9;72
2024-03-11 11:14:04;35.5;9;72
2024-03-11 09:17:33;35.7;7;73
2024-03-11 07:21:03;35.5;8;72
2024-03-11 05:24:33;35.6;7;72
2024-03-11 03:28:03;35.5;8;71
2024-03-11 01:31:32;35.5;9;70
2024-03-10 23:34:58;35.5;9;71
2024-03-10 21:38:25;35.5;9;72
2024-03-10 19:45:06;35.4;12;71
2024-03-10 18:47:06;35.3;15;67
2024-03-10 16:50:15;35.5;15;68
2024-03-10 14:53:22;35.8;15;67
2024-03-10 12:56:33;35.9;13;68
2024-03-10 11:55:50;36;10;70
2024-03-10 10:40:15;36.1;7;73
2024-03-10 08:43:48;36;6;74
2024-03-10 06:47:22;36;6;74
2024-03-10 04:50:57;35.9;6;74
2024-03-10 02:54:31;36;6;73
2024-03-10 00:58:03;35.8;7;72
2024-03-09 23:01:32;35.6;8;71
2024-03-09 21:04:59;35.6;9;69
2024-03-09 19:08:24;35.4;10;70
2024-03-09 17:11:46;35.1;12;68
2024-03-09 16:01:42;35.5;13;66
2024-03-09 14:04:57;35.5;12;67
2024-03-09 12:08:15;35.6;12;67
2024-03-09 10:11:34;35.7;11;68
2024-03-09 08:14:58;35.7;10;69
2024-03-09 06:18:24;35.8;8;70
2024-03-09 04:21:56;35.7;7;72
2024-03-09 02:25:26;35.7;8;71
2024-03-09 00:28:56;35.6;8;70
2024-03-08 22:32:23;35.6;9;68
2024-03-08 20:35:49;35.7;9;67
2024-03-08 18:39:15;35.7;9;68
2024-03-08 16:42:38;35.5;10;67
2024-03-08 14:46:01;35.5;11;67
2024-03-08 13:23:22;35.5;13;65
2024-03-08 12:40:18;35.5;15;60
2024-03-08 10:45:26;35.9;11;65
2024-03-08 08:48:50;35.9;9;67
2024-03-08 07:12:22;35.8;7;71
2024-03-08 05:15:53;35.9;8;69
2024-03-08 03:19:24;35.9;7;70
2024-03-08 01:22:56;35.9;7;71
2024-03-07 23:26:25;35.9;8;71
2024-03-07 21:29:53;35.8;9;74
2024-03-07 20:07:46;35.9;11;73
2024-03-07 19:34:31;36.1;13;70
2024-03-07 17:37:39;36;16;65
2024-03-07 15:40:46;36;15;66
2024-03-07 13:43:59;36.1;13;68
2024-03-07 11:47:20;36.6;9;69
2024-03-07 10:49:57;36.5;7;71
2024-03-07 10:02:50;36.3;5;73
2024-03-07 08:06:30;36.4;3;76
2024-03-07 06:10:11;36.4;3;77
2024-03-07 04:13:51;36.5;3;77
2024-03-07 02:17:31;36.4;4;76
2024-03-07 00:21:09;36.5;4;76
2024-03-06 22:24:46;36.4;5;77
2024-03-06 20:28:19;36.3;8;76
2024-03-06 19:11:20;36.5;10;73
2024-03-06 17:14:42;36.5;11;72
2024-03-06 15:18:03;36.6;10;72
2024-03-06 13:21:26;36.6;10;72
2024-03-06 11:24:49;36.8;9;71
2024-03-06 10:29:46;36.9;6;74
2024-03-06 09:14:44;36.8;4;78
2024-03-06 07:18:21;36.9;4;77
2024-03-06 05:21:58;36.8;4;78
2024-03-06 03:25:34;36.8;4;77
2024-03-06 01:29:11;36.8;5;77
2024-03-05 23:32:46;36.8;5;76
2024-03-05 21:36:22;36.7;5;77
2024-03-05 19:39:58;36.7;6;77
2024-03-05 18:32:22;36.6;9;74
2024-03-05 16:35:46;36.4;11;71
2024-03-05 14:40:39;36.5;11;70
2024-03-05 12:42:31;36.6;9;73
2024-03-05 10:45:57;36.8;8;71
2024-03-05 09:36:57;36.6;6;75
2024-03-05 07:40:33;36.6;5;76
2024-03-05 05:44:11;36.6;5;77
2024-03-05 03:47:43;36.7;6;76
2024-03-05 02:50:35;36.8;6;75
2024-03-04 23:54:48;36.6;7;74
2024-03-04 21:58:20;36.7;6;75
2024-03-04 20:01:52;36.8;7;75
2024-03-04 18:05:19;36.7;9;73
2024-03-04 16:08:42;36.7;10;72
2024-03-04 14:12:03;36.7;11;71
2024-03-04 12:15:25;37;10;70
2024-03-04 11:08:42;37.1;7;73
2024-03-04 09:12:14;36.9;6;75
2024-03-04 07:15:48;37.1;5;75
2024-03-04 05:19:22;36.9;6;75
2024-03-04 03:22:56;37.2;5;75
2024-03-04 01:26:31;37.2;5;75
2024-03-03 23:30:06;37.1;5;75
2024-03-03 21:33:42;37.1;5;76
2024-03-03 19:37:19;37.1;5;76
2024-03-03 17:40:55;37.2;5;75
2024-03-03 15:44:30;37.1;6;73
2024-03-03 13:48:05;37.3;4;73
2024-03-03 11:51:44;37.6;3;75
2024-03-03 09:55:22;37.1;4;74
2024-03-03 07:58:59;37.1;5;75
2024-03-03 06:02:33;36.9;8;72
2024-03-03 04:05:59;36.6;10;68
2024-03-03 02:09:21;36.4;11;67
2024-03-03 00:12:43;36.4;11;67
2024-03-02 22:16:04;36.5;11;67
2024-03-02 20:19:23;36.4;12;66
2024-03-02 18:22:39;36.4;14;65
2024-03-02 16:25:51;36.5;15;64
2024-03-02 14:29:03;36.3;15;64
2024-03-02 13:13:17;36.7;15;62
2024-03-02 11:58:59;36.8;12;66
2024-03-02 10:02:20;36.9;10;68
2024-03-02 08:05:44;36.8;10;68
2024-03-02 06:09:08;36.8;10;68
2024-03-02 04:12:32;36.9;9;69
2024-03-02 02:15:59;36.9;9;68
2024-03-02 00:19:25;36.7;9;70
2024-03-01 22:22:50;36.7;10;68
2024-03-01 20:26:14;36.7;11;68
2024-03-01 18:29:33;36.8;13;66
2024-03-01 16:32:45;36.9;14;64
2024-03-01 14:35:56;37;15;64
2024-03-01 12:39:09;37.2;12;65
2024-03-01 10:50:57;37.3;9;69
2024-03-01 08:54:29;37.4;6;73
2024-03-01 06:58:01;37.5;7;72
2024-03-01 05:01:31;37.3;8;71
2024-03-01 03:04:59;37.5;8;69
2024-03-01 01:08:26;37.3;9;67
2024-02-29 23:11:55;37.2;8;70
2024-02-29 21:15:22;37.1;10;70
2024-02-29 19:24:21;37.3;12;68
2024-02-29 18:30:34;37.2;15;64
2024-02-29 16:33:42;37.2;16;64
2024-02-29 16:33:07;34.4;16;64
2024-02-29 16:32:32;26.5;16;64
2024-02-29 16:31:01;25.2;16;64
2024-02-29 15:33:27;35.6;16;64
2024-02-29 13:36:36;35.9;13;66
2024-02-29 11:39:55;36.3;9;69
2024-02-29 10:58:22;36.2;7;71
2024-02-29 10:09:24;36;5;73
2024-02-29 08:19:35;35.9;3;77
2024-02-29 06:23:17;36.1;3;77
2024-02-29 04:26:56;36;4;77
2024-02-29 02:30:36;36.2;3;78
2024-02-29 00:34:14;36.1;4;77
2024-02-28 22:37:52;36.1;4;79
2024-02-28 20:41:28;36;6;78
2024-02-28 19:30:08;36.1;8;76
2024-02-28 18:38:46;36.3;10;73
2024-02-28 16:42:11;36.1;10;75
2024-02-28 14:45:33;36.3;10;73
2024-02-28 12:48:56;36.4;10;71
2024-02-28 12:05:30;36.2;8;74
2024-02-28 10:09:01;36.2;6;77
2024-02-28 08:12:34;36.2;6;77